Gary, IN

4:45 AM CST on February 22, 2017 (GMT -0600)
Gary / Chicago

Weather History for KGYY - January, 2013

Change the Weather History Date:

Thursday, January 24, 2013

  Actual Average Record
Temperature  
Mean Temperature 16 °F -  
Max Temperature 21 °F 34 °F 66 °F (1967)
Min Temperature 10 °F 18 °F -16 °F (1963)
Degree Days  
Heating Degree Days 50    
Moisture  
Dew Point 5 °F    
Average Humidity 61    
Maximum Humidity 86    
Minimum Humidity 42    
Precipitation  
Precipitation 0.00 in - - ()
Sea Level Pressure  
Sea Level Pressure 30.54 in    
Wind  
Wind Speed 8 mph (SSE)    
Max Wind Speed 14 mph    
Max Gust Speed -    
Visibility 10 miles    
Events Snow    
Averages and records for this station are not official NWS values.
T = Trace of Precipitation, MM = Missing Value Source: NWS Daily Summary

Daily Weather History Graph

Daily Weather History Graph

Search for Another Location

Airport or City:

Trip Planner

Search our weather history database for the weather conditions in past years. The results will help you decide how hot, cold, wet, or windy it might be!

Date:

Astronomy

Jan. 24, 2013 Rise Set
Actual Time 7:08 AM CST 4:55 PM CST
Civil Twilight 6:38 AM CST 5:25 PM CST
Nautical Twilight 6:04 AM CST 5:59 PM CST
Astronomical Twilight 5:31 AM CST 6:32 PM CST
Moon 2:57 PM CST (1/24) 5:06 AM CST (1/24)
Length of Visible Light 10h 47m
Length of Day
9h 47m
Waxing Gibbous, 94% of the Moon is Illuminated
Jan 24
Waxing Gibbous
Jan 26
Full
Feb 3
Last Quarter
Feb 10
New
Feb 17
First Quarter

Hourly Weather History & Observations

Time (CST) Temp. Windchill Dew Point Humidity Pressure Visibility Wind Dir Wind Speed Gust Speed Precip Events Conditions
4:45 AM 12.2 °F -3.1 °F 1.4 °F 62% 30.46 in 7.0 mi WNW 13.8 mph - N/A   Overcast
5:45 AM 10.4 °F -4.1 °F -0.4 °F 62% 30.51 in 10.0 mi WNW 11.5 mph - N/A   Overcast
6:45 AM 10.4 °F -2.4 °F -0.4 °F 62% 30.51 in 15.0 mi WNW 9.2 mph - N/A   Scattered Clouds
7:45 AM 12.2 °F -1.8 °F 1.4 °F 62% 30.54 in 10.0 mi WNW 11.5 mph - N/A   Overcast
8:15 AM 12.2 °F -1.8 °F 3.2 °F 67% 30.56 in 0.8 mi West 11.5 mph - N/A Snow Light Snow
8:45 AM 12.2 °F - 6.8 °F 79% 30.60 in 0.2 mi Calm Calm - N/A Snow Snow
9:45 AM 14.0 °F - 8.6 °F 79% 30.62 in 2.0 mi Calm Calm - N/A Snow Light Snow
10:18 AM 14.0 °F - 8.6 °F 79% 30.63 in 10.0 mi Calm Calm - N/A   Scattered Clouds
10:45 AM 15.8 °F - 8.6 °F 73% 30.62 in 10.0 mi Calm Calm - N/A   Scattered Clouds
11:45 AM 19.4 °F - 6.8 °F 58% 30.60 in 10.0 mi Calm Calm - N/A   Mostly Cloudy
12:45 PM 19.4 °F - 3.2 °F 49% 30.58 in 10.0 mi Calm Calm - N/A   Overcast
1:45 PM 21.2 °F 12.6 °F 1.4 °F 42% 30.56 in 10.0 mi ESE 6.9 mph - N/A   Mostly Cloudy
2:45 PM 21.2 °F 11.7 °F 17.6 °F 86% 30.57 in 10.0 mi SE 8.1 mph - N/A   Overcast
3:48 PM 21.2 °F 11.7 °F 1.4 °F 42% 30.56 in 15.0 mi SE 8.1 mph - N/A   Overcast
4:45 PM 19.4 °F 9.5 °F 3.2 °F 49% 30.54 in 15.0 mi SE 8.1 mph - N/A   Overcast
5:45 PM 19.4 °F 12.8 °F 3.2 °F 49% 30.53 in 15.0 mi SE 4.6 mph - N/A   Mostly Cloudy
6:45 PM 19.4 °F - 5.0 °F 54% 30.51 in 15.0 mi Calm Calm - N/A   Overcast
7:45 PM 19.4 °F 11.5 °F 5.0 °F 54% 30.47 in 15.0 mi ESE 5.8 mph - N/A   Mostly Cloudy
8:45 PM 19.4 °F 11.5 °F 5.0 °F 54% 30.44 in 15.0 mi SE 5.8 mph - N/A   Mostly Cloudy
9:45 PM 19.4 °F 10.4 °F 5.0 °F 54% 30.44 in 15.0 mi ESE 6.9 mph - N/A   Mostly Cloudy